Find Starlink 32498

NORAD ID: 61966 Int'l Des: 2024-210 Owner: SPXS Country: US Constellation: starlink operational
LEOCIRCULAR

实时位置

正在加载3D地球...

关于 Starlink 32498

正在加载描述...

即将过境

Passes for default location (London). Set your location on the main map for personalized predictions.

高度历史

Loading altitude history...

两行轨道根数

1 61966U 24210H 26125.60209749 .00029701 00000-0 10836-2 0 9999
2 61966 43.0015 203.7386 0001343 282.0453 78.0248 15.27606869 83782
Epoch: May 5, 2026 • Age: 12 hours

当前状态

高度 483.4 km
速度 7.63 km/s
星下点 24.36°N, 97.32°E
发射日期 Nov 14, 2024
运行时间 1.4 years
类型 internet

技术详情

分类 Payload
质量 730.00 kg
干质量 700.00 kg
总质量 730.00 kg
长度 0.30 m
直径 4.10 m
跨度 29.00 m
形状 Box + pan
制造商 SPXS
平台类型 Starlink V2M
阶段状态 In Orbit
所有者/国家 SPXS/US

Most Searched